Weather History for Bigfork, MN

Change the Weather History Date:

Thursday, February 14, 2013

  Actual Average (KGPZ) Record (KGPZ)
Temperature  
Mean Temperature 17 °F -  
Max Temperature 26 °F 25 °F 49 °F (1981)
Min Temperature 6 °F 1 °F -38 °F (1916)
Degree Days  
Heating Degree Days 48    
Moisture  
Dew Point 7 °F    
Average Humidity 68    
Maximum Humidity 92    
Minimum Humidity 42    
Precipitation  
Precipitation 0.00 in - - ()
Sea Level Pressure  
Sea Level Pressure 29.92 in    
Wind  
Wind Speed 5 mph (NNW)    
Max Wind Speed 12 mph    
Max Gust Speed 21 mph    
Visibility 10 miles    
Events Snow    
Averages and records for this station are not official NWS values.
T = Trace of Precipitation, MM = Missing Value Source: NWS Daily Summary

Daily Weather History Graph

Daily Weather History Graph

Search for Another Location

Airport:

Trip Planner

Search our weather history database for the weather conditions in past years. The results will help you decide how hot, cold, wet, or windy it might be!

Date:

Astronomy

Feb. 14, 2013 Rise Set
Actual Time 7:21 AM CST 5:36 PM CST
Civil Twilight 6:49 AM CST 6:08 PM CST
Nautical Twilight 6:13 AM CST 6:44 PM CST
Astronomical Twilight 5:37 AM CST 7:20 PM CST
Moon 8:59 AM CST (2/14) 11:07 PM CST (2/14)
Length of Visible Light 11h 18m
Length of Day
10h 14m
Waxing Crescent, 22% of the Moon is Illuminated
Feb 14
Waxing Crescent
Feb 17
First Quarter
Feb 25
Full
Mar 4
Last Quarter
Mar 11
New

Hourly Weather History & Observations

Time (CST) Temp. Windchill Dew Point Humidity Pressure Visibility Wind Dir Wind Speed Gust Speed Precip Events Conditions
12:13 AM 24.8 °F - 21.2 °F 86% 29.67 in 10.0 mi Calm Calm - N/A   Overcast
12:33 AM 26.6 °F - 21.2 °F 80% 29.67 in 10.0 mi Calm Calm - N/A   Overcast
12:53 AM 26.6 °F 22.6 °F 21.2 °F 80% 29.67 in 10.0 mi NNW 3.5 mph - N/A   Overcast
1:13 AM 26.6 °F 21.2 °F 21.2 °F 80% 29.68 in 10.0 mi NNW 4.6 mph - N/A   Overcast
1:33 AM 24.8 °F - 21.2 °F 86% 29.68 in 10.0 mi Calm Calm - N/A   Mostly Cloudy
1:53 AM 24.8 °F 19.1 °F 21.2 °F 86% 29.69 in 10.0 mi NNW 4.6 mph - N/A   Overcast
2:13 AM 24.8 °F 19.1 °F 21.2 °F 86% 29.70 in 10.0 mi North 4.6 mph - N/A   Overcast
2:33 AM 24.8 °F 17.9 °F 21.2 °F 86% 29.71 in 10.0 mi North 5.8 mph - N/A   Overcast
2:53 AM 24.8 °F 16.9 °F 19.4 °F 80% 29.71 in 10.0 mi North 6.9 mph - N/A   Overcast
3:13 AM 24.8 °F 16.1 °F 19.4 °F 80% 29.71 in 10.0 mi North 8.1 mph - N/A   Overcast
3:33 AM 23.0 °F 13.9 °F 19.4 °F 86% 29.72 in 10.0 mi North 8.1 mph - N/A   Overcast
3:53 AM 21.2 °F 10.9 °F 17.6 °F 86% 29.73 in 10.0 mi North 9.2 mph - N/A   Mostly Cloudy
4:13 AM 21.2 °F 12.6 °F 15.8 °F 80% 29.74 in 10.0 mi North 6.9 mph - N/A   Mostly Cloudy
4:33 AM 17.6 °F 8.2 °F 14.0 °F 86% 29.75 in 10.0 mi North 6.9 mph - N/A   Scattered Clouds
4:53 AM 17.6 °F 7.3 °F 12.2 °F 79% 29.77 in 10.0 mi North 8.1 mph - N/A   Scattered Clouds
5:13 AM 17.6 °F 8.2 °F 12.2 °F 79% 29.78 in 10.0 mi North 6.9 mph - N/A   Overcast
5:33 AM 15.8 °F 4.2 °F 12.2 °F 86% 29.79 in 10.0 mi North 9.2 mph 16.1 mph N/A   Overcast
5:53 AM 15.8 °F 8.6 °F 12.2 °F 86% 29.80 in 10.0 mi North 4.6 mph - N/A   Overcast
6:13 AM 14.0 °F 2.9 °F 10.4 °F 86% 29.80 in 10.0 mi North 8.1 mph - N/A   Overcast
6:33 AM 12.2 °F 2.9 °F 10.4 °F 92% 29.82 in 10.0 mi North 5.8 mph - N/A   Overcast
6:53 AM 12.2 °F -0.2 °F 10.4 °F 92% 29.83 in 10.0 mi North 9.2 mph - N/A Snow Light Snow
7:13 AM 12.2 °F 1.7 °F 10.4 °F 92% 29.84 in 10.0 mi North 6.9 mph - N/A Snow Light Snow
7:33 AM 12.2 °F -1.8 °F 8.6 °F 85% 29.86 in 7.0 mi North 11.5 mph 18.4 mph N/A Snow Light Snow
7:53 AM 12.2 °F -0.2 °F 8.6 °F 85% 29.86 in 10.0 mi North 9.2 mph 20.7 mph N/A Snow Light Snow
8:13 AM 12.2 °F 1.7 °F 8.6 °F 85% 29.88 in 10.0 mi North 6.9 mph - N/A Snow Light Snow
8:33 AM 12.2 °F 2.9 °F 6.8 °F 79% 29.88 in 10.0 mi North 5.8 mph 17.3 mph N/A Snow Light Snow
8:53 AM 12.2 °F 1.7 °F 6.8 °F 79% 29.89 in 10.0 mi North 6.9 mph - N/A Snow Light Snow
9:13 AM 12.2 °F 1.7 °F 6.8 °F 79% 29.90 in 10.0 mi NNW 6.9 mph - N/A Snow Light Snow
9:33 AM 12.2 °F 1.7 °F 6.8 °F 79% 29.91 in 10.0 mi NNW 6.9 mph - N/A Snow Light Snow
9:53 AM 12.2 °F 1.7 °F 6.8 °F 79% 29.92 in 10.0 mi NNW 6.9 mph - N/A Snow Light Snow
10:13 AM 14.0 °F 0.5 °F 6.8 °F 73% 29.93 in 10.0 mi North 11.5 mph - N/A   Clear
10:33 AM 12.2 °F 1.7 °F 5.0 °F 73% 29.94 in 10.0 mi North 6.9 mph - N/A   Clear
10:53 AM 14.0 °F 0.5 °F 3.2 °F 62% 29.94 in 10.0 mi North 11.5 mph - N/A   Clear
11:13 AM 15.8 °F 4.2 °F 3.2 °F 58% 29.94 in 10.0 mi North 9.2 mph - N/A   Clear
11:33 AM 15.8 °F 2.7 °F 3.2 °F 58% 29.95 in 10.0 mi North 11.5 mph 16.1 mph N/A   Clear
11:53 AM 17.6 °F 5.7 °F 3.2 °F 53% 29.95 in 10.0 mi North 10.4 mph - N/A   Clear
12:13 PM 17.6 °F 8.2 °F 1.4 °F 49% 29.95 in 10.0 mi North 6.9 mph - N/A   Clear
12:33 PM 17.6 °F 5.0 °F 1.4 °F 49% 29.96 in 10.0 mi North 11.5 mph 17.3 mph N/A   Clear
12:53 PM 19.4 °F 7.9 °F 1.4 °F 46% 29.96 in 10.0 mi North 10.4 mph 17.3 mph N/A   Clear
1:13 PM 19.4 °F 7.9 °F -0.4 °F 42% 29.97 in 10.0 mi North 10.4 mph 16.1 mph N/A   Clear
1:33 PM 19.4 °F 8.6 °F -0.4 °F 42% 29.97 in 10.0 mi North 9.2 mph - N/A   Clear
1:53 PM 19.4 °F 10.4 °F -0.4 °F 42% 29.98 in 10.0 mi North 6.9 mph 17.3 mph N/A   Clear
2:13 PM 21.2 °F 12.6 °F 1.4 °F 42% 29.98 in 10.0 mi NW 6.9 mph - N/A   Clear
2:33 PM 19.4 °F 12.8 °F 1.4 °F 46% 29.99 in 10.0 mi NNW 4.6 mph - N/A   Clear
2:53 PM 21.2 °F 14.9 °F 3.2 °F 46% 30.00 in 10.0 mi NW 4.6 mph - N/A   Clear
3:13 PM 21.2 °F 10.1 °F 1.4 °F 42% 30.01 in 10.0 mi NW 10.4 mph - N/A   Clear
3:33 PM 21.2 °F 11.7 °F 1.4 °F 42% 30.01 in 10.0 mi NW 8.1 mph - N/A   Clear
3:53 PM 21.2 °F 11.7 °F 1.4 °F 42% 30.02 in 10.0 mi NNW 8.1 mph - N/A   Clear
4:13 PM 21.2 °F 13.6 °F 1.4 °F 42% 30.02 in 10.0 mi NNW 5.8 mph - N/A   Clear
4:33 PM 21.2 °F 13.6 °F 1.4 °F 42% 30.03 in 10.0 mi NW 5.8 mph - N/A   Clear
4:53 PM 21.2 °F 13.6 °F 3.2 °F 46% 30.04 in 10.0 mi WNW 5.8 mph - N/A   Clear
5:13 PM 19.4 °F 11.5 °F 3.2 °F 49% 30.05 in 10.0 mi NW 5.8 mph - N/A   Clear
5:33 PM 19.4 °F 11.5 °F 3.2 °F 49% 30.05 in 10.0 mi WNW 5.8 mph - N/A   Clear
5:53 PM 17.6 °F 8.2 °F 1.4 °F 49% 30.06 in 10.0 mi NW 6.9 mph - N/A   Clear
6:13 PM 15.8 °F 8.6 °F -0.4 °F 49% 30.07 in 10.0 mi NW 4.6 mph - N/A   Clear
6:33 PM 15.8 °F - -0.4 °F 49% 30.07 in 10.0 mi Calm Calm - N/A   Clear
6:53 PM 12.2 °F - -0.4 °F 57% 30.07 in 10.0 mi Calm Calm - N/A   Clear
7:13 PM 10.4 °F - -0.4 °F 62% 30.08 in 10.0 mi Calm Calm - N/A   Clear
7:53 PM 8.6 °F 2.0 °F -0.4 °F 67% 30.08 in 10.0 mi West 3.5 mph - N/A   Clear
8:13 PM 10.4 °F - -0.4 °F 62% 30.08 in 10.0 mi Calm Calm - N/A   Clear
8:33 PM 8.6 °F - 1.4 °F 73% 30.09 in 10.0 mi Calm Calm - N/A   Clear
8:53 PM 8.6 °F 2.0 °F 1.4 °F 73% 30.09 in 10.0 mi West 3.5 mph - N/A   Scattered Clouds
9:13 PM 8.6 °F 2.0 °F 1.4 °F 73% 30.10 in 10.0 mi WNW 3.5 mph - N/A   Overcast
9:33 PM 10.4 °F 4.0 °F 1.4 °F 67% 30.10 in 10.0 mi WNW 3.5 mph - N/A   Overcast
9:53 PM 10.4 °F 2.2 °F 1.4 °F 67% 30.10 in 10.0 mi NW 4.6 mph - N/A   Overcast
10:13 PM 10.4 °F 2.2 °F 1.4 °F 67% 30.10 in 10.0 mi WNW 4.6 mph - N/A   Overcast
10:33 PM 10.4 °F -0.4 °F 1.4 °F 67% 30.10 in 10.0 mi WNW 6.9 mph - N/A   Overcast
10:53 PM 8.6 °F -1.3 °F 1.4 °F 73% 30.10 in 10.0 mi NW 5.8 mph - N/A   Overcast
11:13 PM 8.6 °F 0.1 °F 1.4 °F 73% 30.10 in 10.0 mi WNW 4.6 mph - N/A   Scattered Clouds
11:33 PM 8.6 °F 0.1 °F 1.4 °F 73% 30.11 in 10.0 mi WNW 4.6 mph - N/A   Clear
11:53 PM 6.8 °F -5.9 °F 1.4 °F 79% 30.11 in 10.0 mi NW 8.1 mph - N/A   Clear